Time,TemperatureF,DewpointF,PressureIn,WindDirection,WindDirectionDegrees,WindSpeedMPH,WindSpeedGustMPH,Humidity,HourlyPrecipIn,Conditions,Clouds,dailyrainin,SoftwareType,DateUTC
2013-05-15 00:09:00,73.4,55.2,29.72,SSW,208,0.0,8.1,53,0.00,,CLR,0.00,VWS V14.00,2013-05-15 05:09:00,
2013-05-15 00:19:00,73.9,54.7,29.72,SSW,202,5.4,8.1,51,0.00,,CLR,0.00,VWS V14.00,2013-05-15 05:19:00,
2013-05-15 00:29:00,74.5,54.6,29.70,SW,217,7.2,10.7,50,0.00,,CLR,0.00,VWS V14.00,2013-05-15 05:29:00,
2013-05-15 00:39:00,74.8,54.4,29.70,SSW,209,4.5,10.7,49,0.00,,CLR,0.00,VWS V14.00,2013-05-15 05:39:00,
2013-05-15 00:49:00,74.8,54.4,29.70,SW,214,8.9,10.7,49,0.00,,CLR,0.00,VWS V14.00,2013-05-15 05:49:00,
2013-05-15 00:59:00,75.0,54.0,29.70,SW,235,10.7,11.6,48,0.00,,CLR,0.00,VWS V14.00,2013-05-15 05:59:00,
2013-05-15 01:08:00,75.2,53.6,29.70,WSW,238,7.2,14.3,47,0.00,,CLR,0.00,VWS V14.00,2013-05-15 06:08:00,
2013-05-15 01:19:00,75.4,53.2,29.70,SW,229,10.7,17.4,46,0.00,,CLR,0.00,VWS V14.00,2013-05-15 06:19:00,
2013-05-15 01:28:00,75.4,52.6,29.70,SW,230,10.7,15.2,45,0.00,,CLR,0.00,VWS V14.00,2013-05-15 06:28:00,
2013-05-15 01:40:00,75.4,52.0,29.70,WSW,254,16.6,16.6,44,0.00,,CLR,0.00,VWS V14.00,2013-05-15 06:40:00,
2013-05-15 01:49:00,75.7,51.7,29.70,WSW,249,12.5,17.4,43,0.00,,CLR,0.00,VWS V14.00,2013-05-15 06:49:00,
2013-05-15 02:00:00,76.6,51.2,29.70,SW,228,16.1,16.6,41,0.00,,CLR,0.00,VWS V14.00,2013-05-15 07:00:00,
2013-05-15 02:09:00,77.0,50.9,29.70,WSW,238,12.5,21.0,40,0.00,,CLR,0.00,VWS V14.00,2013-05-15 07:09:00,
2013-05-15 02:19:00,77.2,50.3,29.70,SW,236,18.3,18.3,39,0.00,,CLR,0.00,VWS V14.00,2013-05-15 07:19:00,
2013-05-15 02:29:00,77.0,50.2,29.70,South,187,11.6,26.4,39,0.00,,CLR,0.00,VWS V14.00,2013-05-15 07:29:00,
2013-05-15 02:39:00,76.8,50.7,29.70,WSW,238,8.1,24.6,40,0.00,,CLR,0.00,VWS V14.00,2013-05-15 07:39:00,
2013-05-15 02:49:00,76.6,50.5,29.70,WSW,245,8.1,21.0,40,0.00,,CLR,0.00,VWS V14.00,2013-05-15 07:49:00,
2013-05-15 02:59:00,76.5,50.4,29.70,WSW,241,15.2,21.9,40,0.00,,CLR,0.00,VWS V14.00,2013-05-15 07:59:00,
2013-05-15 03:09:00,76.1,50.7,29.70,WSW,250,16.6,17.4,41,0.00,,CLR,0.00,VWS V14.00,2013-05-15 08:09:00,
2013-05-15 03:19:00,75.7,50.4,29.70,SW,236,8.1,21.0,41,0.00,,CLR,0.00,VWS V14.00,2013-05-15 08:19:00,
2013-05-15 03:30:00,75.4,50.1,29.70,SW,226,16.6,21.0,41,0.00,,CLR,0.00,VWS V14.00,2013-05-15 08:30:00,
2013-05-15 03:40:00,75.2,50.6,29.70,West,263,10.7,17.4,42,0.00,,CLR,0.00,VWS V14.00,2013-05-15 08:40:00,
2013-05-15 03:49:00,74.8,50.2,29.72,SW,224,8.1,16.1,42,0.00,,CLR,0.00,VWS V14.00,2013-05-15 08:49:00,
2013-05-15 03:59:00,74.1,51.4,29.72,WSW,253,7.2,17.4,45,0.00,,CLR,0.00,VWS V14.00,2013-05-15 08:59:00,
2013-05-15 04:10:00,73.6,51.5,29.72,WSW,256,11.6,20.1,46,0.00,,CLR,0.00,VWS V14.00,2013-05-15 09:10:00,
2013-05-15 04:19:00,72.0,52.9,29.72,WSW,240,9.8,12.5,51,0.00,,CLR,0.00,VWS V14.00,2013-05-15 09:19:00,
2013-05-15 04:29:00,71.4,52.4,29.72,SW,233,7.2,9.8,51,0.00,,CLR,0.00,VWS V14.00,2013-05-15 09:29:00,
2013-05-15 04:39:00,71.6,52.0,29.72,West,270,9.8,12.5,50,0.00,,CLR,0.00,VWS V14.00,2013-05-15 09:39:00,
2013-05-15 04:49:00,72.0,51.2,29.75,West,263,7.2,13.4,48,0.00,,CLR,0.00,VWS V14.00,2013-05-15 09:49:00,
2013-05-15 04:59:00,72.0,50.7,29.75,WNW,291,8.1,14.3,47,0.00,,CLR,0.00,VWS V14.00,2013-05-15 09:59:00,
2013-05-15 05:09:00,71.8,50.5,29.75,WSW,247,6.3,11.6,47,0.00,,CLR,0.00,VWS V14.00,2013-05-15 10:09:00,
2013-05-15 05:19:00,71.2,50.6,29.75,WSW,252,5.4,11.6,48,0.00,,CLR,0.00,VWS V14.00,2013-05-15 10:19:00,
2013-05-15 05:29:00,70.9,50.2,29.75,WSW,243,8.1,11.6,48,0.00,,CLR,0.00,VWS V14.00,2013-05-15 10:29:00,
2013-05-15 05:39:00,70.5,49.9,29.75,WSW,237,8.1,11.6,48,0.00,,CLR,0.00,VWS V14.00,2013-05-15 10:39:00,
2013-05-15 05:49:00,70.2,50.1,29.78,WSW,255,8.1,11.6,49,0.00,,CLR,0.00,VWS V14.00,2013-05-15 10:49:00,
2013-05-15 05:59:00,70.0,50.0,29.78,WSW,250,9.8,11.6,49,0.00,,CLR,0.00,VWS V14.00,2013-05-15 10:59:00,
2013-05-15 06:09:00,70.0,50.0,29.78,WSW,248,6.3,10.7,49,0.00,,CLR,0.00,VWS V14.00,2013-05-15 11:09:00,
2013-05-15 06:19:00,70.0,50.0,29.78,WSW,240,6.3,8.1,49,0.00,,CLR,0.00,VWS V14.00,2013-05-15 11:19:00,
2013-05-15 06:29:00,69.8,49.8,29.78,WSW,241,9.8,10.7,49,0.00,,CLR,0.00,VWS V14.00,2013-05-15 11:29:00,
2013-05-15 06:39:00,70.0,49.4,29.78,WSW,247,6.3,11.6,48,0.00,,CLR,0.00,VWS V14.00,2013-05-15 11:39:00,
2013-05-15 06:49:00,70.2,49.6,29.81,SW,235,8.9,10.7,48,0.00,,,0.00,VWS V14.00,2013-05-15 11:49:00,
2013-05-15 06:59:00,70.3,49.7,29.81,WSW,245,7.2,9.8,48,0.00,,,0.00,VWS V14.00,2013-05-15 11:59:00,
2013-05-15 07:09:00,70.5,49.3,29.81,SW,227,5.4,9.8,47,0.00,,CLR,0.00,VWS V14.00,2013-05-15 12:09:00,
2013-05-15 07:18:00,70.3,49.7,29.81,WSW,237,7.2,9.8,48,0.00,,CLR,0.00,VWS V14.00,2013-05-15 12:18:00,
2013-05-15 07:30:00,70.7,50.6,29.81,SW,227,5.4,10.7,49,0.00,,CLR,0.00,VWS V14.00,2013-05-15 12:30:00,
2013-05-15 08:09:00,72.0,50.1,29.81,WSW,246,6.3,9.8,46,0.00,,CLR,0.00,VWS V14.00,2013-05-15 13:09:00,
2013-05-15 08:19:00,72.1,49.7,29.84,WSW,242,8.1,8.1,45,0.00,,CLR,0.00,VWS V14.00,2013-05-15 13:19:00,
2013-05-15 08:39:00,73.0,49.2,29.84,WNW,290,6.3,10.7,43,0.00,,CLR,0.00,VWS V14.00,2013-05-15 13:39:00,
2013-05-15 08:49:00,73.2,49.4,29.84,SW,227,5.4,10.7,43,0.00,,CLR,0.00,VWS V14.00,2013-05-15 13:49:00,
2013-05-15 08:59:00,73.6,49.7,29.84,WSW,243,4.5,8.1,43,0.00,,CLR,0.00,VWS V14.00,2013-05-15 13:59:00,
2013-05-15 09:19:00,74.3,48.4,29.84,WNW,287,4.5,8.9,40,0.00,,CLR,0.00,VWS V14.00,2013-05-15 14:19:00,
2013-05-15 09:29:00,74.7,47.4,29.84,WNW,284,7.2,9.8,38,0.00,,CLR,0.00,VWS V14.00,2013-05-15 14:29:00,
2013-05-15 09:39:00,75.0,47.0,29.84,West,272,6.3,11.6,37,0.00,,CLR,0.00,VWS V14.00,2013-05-15 14:39:00,
2013-05-15 09:49:00,75.2,46.4,29.84,WNW,288,7.2,11.6,36,0.00,,CLR,0.00,VWS V14.00,2013-05-15 14:49:00,
2013-05-15 09:59:00,75.4,46.6,29.84,WNW,300,6.3,11.6,36,0.00,,CLR,0.00,VWS V14.00,2013-05-15 14:59:00,
2013-05-15 10:09:00,75.4,45.1,29.84,NNW,330,9.8,11.6,34,0.00,,CLR,0.00,VWS V14.00,2013-05-15 15:09:00,
2013-05-15 10:19:00,75.7,45.4,29.84,NW,314,8.1,12.5,34,0.00,,CLR,0.00,VWS V14.00,2013-05-15 15:19:00,
2013-05-15 10:29:00,76.8,47.1,29.84,NW,315,8.1,9.8,35,0.00,,CLR,0.00,VWS V14.00,2013-05-15 15:29:00,
2013-05-15 10:39:00,77.5,47.0,29.84,NW,321,10.7,11.6,34,0.00,,CLR,0.00,VWS V14.00,2013-05-15 15:39:00,
2013-05-15 10:59:00,77.9,45.7,29.84,WNW,303,5.4,12.5,32,0.00,,CLR,0.00,VWS V14.00,2013-05-15 15:59:00,
2013-05-15 11:18:00,78.3,46.0,29.87,NW,312,6.3,10.7,32,0.00,,CLR,0.00,VWS V14.00,2013-05-15 16:18:00,
2013-05-15 11:30:00,78.4,46.2,29.87,NW,312,5.4,10.7,32,0.00,,CLR,0.00,VWS V14.00,2013-05-15 16:30:00,
2013-05-15 11:59:00,80.1,46.7,29.87,WNW,296,7.2,8.1,31,0.00,,CLR,0.00,VWS V14.00,2013-05-15 16:59:00,
2013-05-15 12:29:00,80.2,46.0,29.87,WNW,294,4.5,8.1,30,0.00,,CLR,0.00,VWS V14.00,2013-05-15 17:29:00,
2013-05-15 12:39:00,80.2,46.0,29.87,NNW,348,4.5,12.5,30,0.00,,CLR,0.00,VWS V14.00,2013-05-15 17:39:00,
2013-05-15 12:49:00,80.6,46.3,29.84,NNW,329,5.4,8.1,30,0.00,,CLR,0.00,VWS V14.00,2013-05-15 17:49:00,
2013-05-15 12:59:00,81.5,47.1,29.84,NW,318,8.1,10.7,30,0.00,,CLR,0.00,VWS V14.00,2013-05-15 17:59:00,
2013-05-15 13:19:00,81.7,47.3,29.84,NW,309,7.2,9.8,30,0.00,,CLR,0.00,VWS V14.00,2013-05-15 18:19:00,
2013-05-15 13:39:00,81.3,47.0,29.87,West,274,5.4,9.8,30,0.00,,CLR,0.00,VWS V14.00,2013-05-15 18:39:00,
2013-05-15 13:49:00,81.3,47.0,29.87,SW,214,5.4,8.1,30,0.00,,CLR,0.00,VWS V14.00,2013-05-15 18:49:00,
2013-05-15 13:59:00,81.9,47.4,29.87,NNW,330,8.1,12.5,30,0.00,,CLR,0.00,VWS V14.00,2013-05-15 18:59:00,
2013-05-15 14:09:00,82.2,47.7,29.87,NW,308,0.0,8.1,30,0.00,,CLR,0.00,VWS V14.00,2013-05-15 19:09:00,
2013-05-15 14:19:00,82.8,47.3,29.87,North,350,6.3,10.7,29,0.00,,CLR,0.00,VWS V14.00,2013-05-15 19:19:00,
2013-05-15 14:29:00,82.2,47.7,29.84,NW,310,5.4,10.7,30,0.00,,CLR,0.00,VWS V14.00,2013-05-15 19:29:00,
2013-05-15 14:39:00,82.8,47.3,29.84,NW,324,6.3,12.5,29,0.00,,CLR,0.00,VWS V14.00,2013-05-15 19:39:00,
2013-05-15 14:49:00,82.4,47.0,29.84,North,10,0.0,8.1,29,0.00,,CLR,0.00,VWS V14.00,2013-05-15 19:49:00,
2013-05-15 14:59:00,82.6,47.1,29.84,NNW,338,7.2,8.1,29,0.00,,CLR,0.00,VWS V14.00,2013-05-15 19:59:00,
2013-05-15 15:08:00,82.8,47.3,29.84,NW,313,7.2,10.7,29,0.00,,CLR,0.00,VWS V14.00,2013-05-15 20:08:00,
2013-05-15 15:18:00,82.6,47.1,29.84,NW,323,4.5,9.8,29,0.00,,CLR,0.00,VWS V14.00,2013-05-15 20:18:00,
2013-05-15 15:30:00,82.8,47.3,29.84,NW,310,5.4,7.2,29,0.00,,CLR,0.00,VWS V14.00,2013-05-15 20:30:00,
2013-05-15 15:40:00,82.6,47.1,29.84,NW,309,4.5,8.1,29,0.00,,CLR,0.00,VWS V14.00,2013-05-15 20:40:00,
2013-05-15 16:00:00,82.6,47.1,29.81,NW,319,4.5,8.1,29,0.00,,CLR,0.00,VWS V14.00,2013-05-15 21:00:00,
2013-05-15 16:09:00,82.6,47.1,29.81,NW,318,6.3,8.1,29,0.00,,CLR,0.00,VWS V14.00,2013-05-15 21:09:00,
2013-05-15 16:19:00,83.1,47.6,29.81,NW,324,4.5,7.2,29,0.00,,CLR,0.00,VWS V14.00,2013-05-15 21:19:00,
2013-05-15 16:29:00,82.2,44.9,29.81,NW,324,7.2,9.8,27,0.00,,CLR,0.00,VWS V14.00,2013-05-15 21:29:00,
2013-05-15 16:39:00,81.7,44.5,29.81,NW,304,0.0,9.8,27,0.00,,CLR,0.00,VWS V14.00,2013-05-15 21:39:00,
2013-05-15 16:49:00,82.2,44.9,29.81,West,276,5.4,8.1,27,0.00,,CLR,0.00,VWS V14.00,2013-05-15 21:49:00,
2013-05-15 16:59:00,82.6,44.3,29.84,NW,323,5.4,6.3,26,0.00,,CLR,0.00,VWS V14.00,2013-05-15 21:59:00,
2013-05-15 17:09:00,82.9,44.6,29.84,West,280,0.0,6.3,26,0.00,,CLR,0.00,VWS V14.00,2013-05-15 22:09:00,
2013-05-15 17:29:00,83.5,45.0,29.84,NW,325,0.0,0.0,26,0.00,,CLR,0.00,VWS V14.00,2013-05-15 22:29:00,
2013-05-15 17:39:00,82.9,44.6,29.84,NW,312,5.4,10.7,26,0.00,,CLR,0.00,VWS V14.00,2013-05-15 22:39:00,
2013-05-15 17:59:00,82.4,44.1,29.81,NW,312,5.4,8.1,26,0.00,,CLR,0.00,VWS V14.00,2013-05-15 22:59:00,
2013-05-15 18:09:00,82.0,43.8,29.81,NW,305,5.4,8.1,26,0.00,,CLR,0.00,VWS V14.00,2013-05-15 23:09:00,
2013-05-15 18:19:00,81.7,43.5,29.81,NW,319,6.3,11.6,26,0.00,,CLR,0.00,VWS V14.00,2013-05-15 23:19:00,
2013-05-15 18:39:00,80.4,43.4,29.81,NW,317,0.0,6.3,27,0.00,,CLR,0.00,VWS V14.00,2013-05-15 23:39:00,
2013-05-15 18:49:00,79.9,42.0,29.84,NW,317,0.0,0.0,26,0.00,,-RA,0.00,VWS V14.00,2013-05-15 23:49:00,
2013-05-15 18:59:00,79.7,41.8,29.84,NW,318,0.0,0.0,26,0.00,,-RA,0.00,VWS V14.00,2013-05-15 23:59:00,
2013-05-15 19:09:00,79.3,42.5,29.84,NW,317,0.0,0.0,27,0.00,,CLR,0.00,VWS V14.00,2013-05-16 00:09:00,
2013-05-15 19:20:00,79.2,42.3,29.81,NW,317,0.0,0.0,27,0.00,,CLR,0.00,VWS V14.00,2013-05-16 00:20:00,
2013-05-15 19:59:00,75.0,44.0,29.81,NW,317,0.0,0.0,33,0.00,,CLR,0.00,VWS V14.00,2013-05-16 00:59:00,
2013-05-15 20:09:00,74.1,44.0,29.81,NW,317,0.0,0.0,34,0.00,,CLR,0.00,VWS V14.00,2013-05-16 01:09:00,
2013-05-15 20:19:00,72.7,43.5,29.81,NW,317,0.0,0.0,35,0.00,,CLR,0.00,VWS V14.00,2013-05-16 01:19:00,
2013-05-15 20:49:00,72.0,42.8,29.84,NW,319,0.0,5.4,35,0.00,,CLR,0.00,VWS V14.00,2013-05-16 01:49:00,
2013-05-15 20:59:00,71.4,43.1,29.87,NW,319,4.5,5.4,36,0.00,,CLR,0.00,VWS V14.00,2013-05-16 01:59:00,
2013-05-15 21:09:00,71.1,43.5,29.87,NW,319,0.0,6.3,37,0.00,,CLR,0.00,VWS V14.00,2013-05-16 02:09:00,
2013-05-15 21:39:00,69.6,44.9,29.87,NW,319,0.0,0.0,41,0.00,,CLR,0.00,VWS V14.00,2013-05-16 02:39:00,
2013-05-15 21:49:00,69.3,45.2,29.87,NW,319,0.0,0.0,42,0.00,,CLR,0.00,VWS V14.00,2013-05-16 02:49:00,
2013-05-15 22:19:00,68.4,45.0,29.87,NW,319,0.0,0.0,43,0.00,,CLR,0.00,VWS V14.00,2013-05-16 03:19:00,
2013-05-15 22:29:00,68.2,44.9,29.87,NW,319,0.0,0.0,43,0.00,,CLR,0.00,VWS V14.00,2013-05-16 03:29:00,
2013-05-15 22:49:00,67.6,45.0,29.87,NW,319,0.0,0.0,44,0.00,,CLR,0.00,VWS V14.00,2013-05-16 03:49:00,
2013-05-15 22:58:00,67.3,44.7,29.87,NW,319,0.0,0.0,44,0.00,,CLR,0.00,VWS V14.00,2013-05-16 03:58:00,
2013-05-15 23:08:00,67.1,44.5,29.87,NW,319,5.4,5.4,44,0.00,,CLR,0.00,VWS V14.00,2013-05-16 04:08:00,
2013-05-15 23:20:00,67.1,44.5,29.87,NW,318,6.3,8.1,44,0.00,,CLR,0.00,VWS V14.00,2013-05-16 04:20:00,
2013-05-15 23:30:00,67.1,44.5,29.87,NW,316,5.4,7.2,44,0.00,,CLR,0.00,VWS V14.00,2013-05-16 04:30:00,
2013-05-15 23:39:00,66.9,44.3,29.87,NW,323,5.4,8.1,44,0.00,,CLR,0.00,VWS V14.00,2013-05-16 04:39:00,
2013-05-15 23:49:00,66.7,44.8,29.87,NW,307,5.4,6.3,45,0.00,,CLR,0.00,VWS V14.00,2013-05-16 04:49:00,
2013-05-15 23:59:00,66.4,45.0,29.87,NW,312,0.0,6.3,46,0.00,,CLR,0.00,VWS V14.00,2013-05-16 04:59:00,